WG5Q Weather Reports


Display with metric or nautical units.
time (UTC)temp
F
wind
direction
speed
MPH
gust
MPH
rain 1hr
in
rain 24hr
in
rain mn
in
humidity
%
barometer
mb
20190223234653 39 5 0.0 3.0 0.01 0.25 0.18 95 1020.4
20190223233228 40 360 0.0 0.0 0.01 0.25 0.18 95 1020.2
20190223231632 40 360 0.0 0.0 0.02 0.25 0.18 95 1020.0
20190223230159 40 360 0.0 0.0 0.02 0.25 0.18 95 1020.3
20190223224632 40 360 0.0 2.0 0.01 0.25 0.17 95 1020.7
20190223223144 40 360 0.0 3.0 0.01 0.25 0.17 95 1020.8
20190223221630 40 5 1.0 3.0 0.00 0.24 0.16 95 1020.6
20190223220134 39 5 0.0 3.0 0.00 0.24 0.16 95 1020.6
20190223214620 40 331 0.0 2.0 0.01 0.26 0.16 95 1021.2
20190223213201 39 5 1.0 3.0 0.01 0.26 0.16 95 1021.4
20190223211653 39 355 0.0 3.0 0.01 0.26 0.16 95 1021.5
20190223210133 39 355 1.0 2.0 0.02 0.26 0.16 95 1021.4
20190223204657 39 333 0.0 6.0 0.01 0.25 0.15 95 1021.8
20190223203219 39 335 0.0 0.0 0.01 0.25 0.15 95 1022.1
20190223201609 39 327 0.0 2.0 0.01 0.25 0.15 95 1022.2
20190223200142 39 333 0.0 4.0 0.00 0.24 0.14 95 1022.6
20190223194621 39 12 0.0 2.0 0.01 0.26 0.14 95 1022.7
20190223193115 39 343 0.0 3.0 0.01 0.26 0.14 95 1022.7
20190223191622 39 338 0.0 4.0 0.01 0.26 0.14 95 1023.2
20190223190057 39 14 0.0 3.0 0.02 0.26 0.14 95 1022.8
20190223184609 39 24 0.0 3.0 0.01 0.25 0.13 95 1023.2
20190223183053 39 355 1.0 4.0 0.01 0.25 0.13 94 1023.6
20190223181609 39 339 1.0 3.0 0.01 0.25 0.13 94 1023.5
20190223180055 39 290 0.0 6.0 0.00 0.24 0.12 94 1023.6
20190223174608 40 351 1.0 5.0 0.00 0.26 0.12 94 1024.0
20190223173041 40 331 0.0 4.0 0.01 0.26 0.12 95 1024.3
20190223171559 40 360 0.0 4.0 0.01 0.26 0.12 94 1024.8
20190223170112 40 351 0.0 4.0 0.01 0.26 0.12 94 1024.9
20190223164604 40 319 1.0 5.0 0.02 0.27 0.12 94 1024.9
20190223163058 40 317 0.0 3.0 0.01 0.26 0.11 95 1024.8
20190223161528 40 344 0.0 2.0 0.01 0.26 0.11 95 1025.4
20190223160051 40 316 0.0 4.0 0.01 0.26 0.11 95 1025.4
20190223154525 40 336 0.0 3.0 0.00 0.26 0.10 95 1025.0
20190223153046 40 5 1.0 3.0 0.00 0.26 0.10 95 1025.6
20190223151529 40 13 0.0 4.0 0.01 0.26 0.10 95 1025.5
20190223150034 40 340 0.0 1.0 0.01 0.26 0.10 95 1026.0
20190223144547 40 277 0.0 3.0 0.02 0.27 0.10 95 1025.7
20190223143024 40 343 0.0 2.0 0.02 0.27 0.10 95 1026.3
20190223141526 39 24 0.0 4.0 0.01 0.26 0.09 95 1026.3
20190223140028 39 319 0.0 3.0 0.01 0.26 0.09 94 1026.2
20190223134525 39 5 0.0 2.0 0.00 0.26 0.08 94 1026.3
20190223133025 39 160 0.0 2.0 0.00 0.26 0.08 94 1026.1
20190223131538 40 335 1.0 4.0 0.01 0.26 0.08 95 1026.4
20190223130018 40 335 1.0 6.0 0.01 0.26 0.08 95 1026.1
20190223124520 40 265 0.0 2.0 0.01 0.28 0.08 95 1026.0
20190223123024 40 192 0.0 3.0 0.02 0.28 0.08 95 1027.0
20190223121510 41 355 1.0 5.0 0.01 0.27 0.07 95 1025.9
20190223120024 41 343 1.0 3.0 0.01 0.27 0.07 95 1025.9
20190223114520 41 334 2.0 4.0 0.01 0.27 0.07 95 1026.2
20190223113035 41 236 0.0 2.0 0.00 0.26 0.06 95 1025.7
20190223111505 41 312 1.0 3.0 0.00 0.26 0.06 95 1025.4
20190223110005 41 22 0.0 3.0 0.01 0.26 0.06 95 1025.3
20190223104505 41 355 0.0 6.0 0.01 0.28 0.06 95 1025.8
20190223101657 41 5 0.0 1.0 0.02 0.28 0.06 95 1025.9
20190223100220 41 332 0.0 3.0 0.01 0.27 0.05 95 1026.3
20190223094643 41 5 0.0 3.0 0.01 0.28 0.05 95 1025.7
20190223093133 41 327 0.0 2.0 0.01 0.28 0.05 95 1025.2
20190223091705 41 313 0.0 2.0 0.00 0.28 0.04 95 1024.9
20190223090121 41 217 0.0 0.0 0.01 0.28 0.04 95 1025.4
20190223084741 42 5 0.0 5.0 0.01 0.30 0.04 95 1025.3
20190223083145 42 339 0.0 2.0 0.01 0.30 0.04 95 1025.7
20190223081643 42 333 0.0 3.0 0.02 0.30 0.04 94 1025.8
20190223080204 42 333 0.0 2.0 0.01 0.28 0.03 94 1025.9
20190223074612 42 208 0.0 1.0 0.01 0.31 0.03 94 1025.8
20190223073123 42 355 0.0 2.0 0.01 0.31 0.03 94 1026.3
20190223071553 42 334 0.0 4.0 0.00 0.30 0.02 94 1026.3
20190223070154 42 327 1.0 4.0 0.01 0.30 0.02 94 1026.4
20190223064606 42 267 1.0 4.0 0.01 0.32 0.02 94 1026.3
20190223063138 43 159 0.0 5.0 0.02 0.32 0.02 94 1026.7
20190223061612 43 5 0.0 2.0 0.02 0.32 0.02 94 1027.0
20190223060056 43 153 1.0 3.0 0.01 0.31 0.01 94 1026.9
20190223054623 43 232 0.0 3.0 0.01 0.33 0.01 95 1026.9
20190223053051 43 350 0.0 3.0 0.00 0.32 0.00 95 1027.2
20190223051612 44 333 0.0 3.0 0.01 0.32 0.00 95 1027.0
20190223050041 44 355 0.0 3.0 0.01 0.32 0.00 95 1027.0
20190223044554 44 313 0.0 0.0 0.02 0.34 0.32 94 1027.1
20190223043051 44 323 0.0 2.0 0.02 0.34 0.32 94 1027.4
20190223041541 44 350 0.0 2.0 0.01 0.33 0.31 94 1027.4
20190223040026 44 355 1.0 3.0 0.01 0.33 0.31 94 1027.8
20190223034524 44 342 0.0 2.0 0.01 0.34 0.30 94 1027.9
20190223033044 44 311 0.0 3.0 0.01 0.34 0.30 94 1027.8
20190223031522 44 220 1.0 4.0 0.01 0.34 0.30 94 1027.3
20190223030036 44 302 0.0 2.0 0.02 0.34 0.30 94 1027.5
20190223024522 44 341 0.0 2.0 0.01 0.33 0.28 94 1027.4
20190223023101 44 252 1.0 4.0 0.01 0.33 0.28 94 1027.5
20190223021515 44 282 0.0 2.0 0.01 0.33 0.28 94 1027.7
20190223020011 44 344 0.0 4.0 0.00 0.32 0.28 94 1027.1
20190223014508 45 177 0.0 4.0 0.01 0.32 0.28 95 1026.9
20190223013023 45 15 0.0 3.0 0.01 0.32 0.28 95 1027.1
20190223011517 45 26 0.0 0.0 0.02 0.32 0.28 95 1027.1
20190223010006 45 40 0.0 1.0 0.02 0.32 0.28 95 1027.3
20190223004512 45 49 0.0 1.0 0.01 0.31 0.27 95 1026.9
20190223003005 45 101 0.0 1.0 0.01 0.31 0.27 95 1026.6
20190223001504 45 103 0.0 1.0 0.01 0.30 0.26 94 1026.8
20190223000137 45 74 0.0 3.0 0.01 0.30 0.26 94 1026.6
20190222235041 45 216 0.0 0.0 0.01 0.30 0.26 94 1026.2